This demonstration page uses our WeatherBlox Daily Observations layout. Learn more.

Left ArrowRight Arrow

Hourly Observations for June 28, 2015

Temp ( °F °C ) Dew Point ( °F °C ) Humidity (%) Winds ( mph kmh ) Pressure ( in mb ) Visibility ( mi km ) Precip ( " mm )
12:54 am 00:54 Clear 73 22.8 60 15.6 64 64 SSW 9 15 29.92 1013 10 16.0934 N/A
1:54 am 01:54 Clear 73 22.8 60 15.6 64 64 SSW 10 17 29.91 1013 10 16.0934 N/A
2:54 am 02:54 Clear 72 22.2 60 15.6 66 66 SW 9 15 29.9 1013 10 16.0934 N/A
3:54 am 03:54 Clear 71 21.7 59 15 66 66 SSW 9 15 29.88 1012 10 16.0934 N/A
4:54 am 04:54 Clear 71 21.7 59 15 66 66 SW 12 19 29.86 1011 10 16.0934 N/A
5:54 am 05:54 Partly Cloudy 71 21.7 58 14.4 63 63 SW 12 19 29.84 1011 10 16.0934 N/A
6:54 am 06:54 Sunny 70 21.1 58 14.4 66 66 WSW 8 13 29.86 1011 10 16.0934 N/A
7:54 am 07:54 Sunny 72 22.2 59 15 64 64 VRB 7 11 29.86 1011 10 16.0934 N/A
8:54 am 08:54 Sunny 78 25.6 61 16.1 56 56 NW 10 17 29.85 1011 10 16.0934 N/A
9:54 am 09:54 Sunny 83 28.3 60 15.6 46 46 NNW 15 24 29.85 1011 10 16.0934 N/A
10:54 am 10:54 Sunny 86 30 57 13.9 37 37 NNW 15 24 29.85 1011 10 16.0934 N/A
11:54 am 11:54 Sunny 89 31.7 55 12.8 31 31 NNW 18 30 29.85 1011 10 16.0934 N/A
12:54 pm 12:54 Sunny 89 31.7 57 13.9 34 34 NNW 18 30 29.85 1011 10 16.0934 N/A
1:54 pm 13:54 Sunny 89 31.7 56 13.3 33 33 NNW 18 30 29.85 1011 10 16.0934 N/A
2:54 pm 14:54 Sunny 87 30.6 55 12.8 34 34 N 20 31 29.86 1011 10 16.0934 N/A
3:54 pm 15:54 Sunny 88 31.1 56 13.3 34 34 NW 16 26 29.85 1011 10 16.0934 N/A
4:54 pm 16:54 Sunny 87 30.6 53 11.7 31 31 NW 17 28 29.85 1011 10 16.0934 N/A
5:54 pm 17:54 Sunny 86 30 54 12.2 33 33 NW 15 24 29.85 1011 10 16.0934 N/A
6:54 pm 18:54 Sunny 86 30 55 12.8 35 35 NNW 17 28 29.84 1011 10 16.0934 N/A
8:54 pm 20:54 Sunny 80 26.7 57 13.9 45 45 NW 7 11 29.86 1011 10 16.0934 N/A
9:54 pm 21:54 Clear 76 24.4 57 13.9 52 52 NW 9 15 29.88 1012 10 16.0934 N/A
10:54 pm 22:54 Clear 73 22.8 58 14.4 59 59 NNW 6 9 29.89 1012 10 16.0934 N/A
11:54 pm 23:54 Clear 67 19.4 58 14.4 73 73 NNW 6 9 29.9 1013 10 16.0934 N/A

Powered by AerisWeather